584  
NZUS01 KOTX 151925  
RWROTX  
 
EASTERN WASHINGTON/NORTHERN IDAHO ROUNDUP  
NATIONAL WEATHER SERVICE, SPOKANE WA  
1200 PM PDT MON OCT 15 2018  
 
NOTE: "FAIR" INDICATED FEW OR NO CLOUDS BELOW 12,000 FEET WITH NO  
SIGNIFICANT WEATHER AND/OR S TO VISIBILITY
.  
   
..NORTHEAST WASHINGTON AND NORTHERN IDAHO PANHANDLE
 
 
 
CITY SKY/WX TMP DP RH WIND PRES REMARKS
 
SPOKANE INTL MOSUNNY 52 25 35 SE6 30.45F  
SPOKANE DOWNTO SUNNY 51 28 41 CALM 30.46F  
COEUR D ALENE SUNNY 51 26 37 SE6 30.46F  
DEER PARK SUNNY 50 25 37 S3 30.46F  
SANDPOINT SUNNY 48 30 49 SE6 30.45F  
BONNERS FERRY FAIR 48 28 46 CALM 30.44F  
   
..SOUTHEAST WASHINGTON AND SOUTHERN IDAHO PANHANDLE
 
 
 
CITY SKY/WX TMP DP RH WIND PRES REMARKS
 
WALLA WALLA SUNNY 57 29 34 VRB3 30.44F  
PULLMAN/MOSCOW SUNNY 52 24 33 VRB5 30.47S  
LEWISTON SUNNY 53 27 36 VRB3 30.47F  
GRANGEVILLE FAIR 50 27 40 E3 30.44F  
   
..COLUMBIA BASIN
 
 
 
CITY SKY/WX TMP DP RH WIND PRES REMARKS
 
EPHRATA SUNNY 53 27 36 NE3 30.45F  
MOSES LAKE SUNNY 51 30 44 VRB3 30.46F  
PASCO SUNNY 56 35 45 NW5 30.47F  
RICHLAND CLEAR 57 36 45 CALM 30.47F  
HERMISTON SUNNY 55 33 43 W5 30.46S  
PENDLETON SUNNY 57 25 29 CALM 30.43F  
   
..EAST SLOPES CASCADES
 
 
 
CITY SKY/WX TMP DP RH WIND PRES REMARKS
 
THE DALLES SUNNY 53 33 46 CALM 30.44F  
YAKIMA SUNNY 55 28 35 CALM 30.45F  
ELLENSBURG SUNNY 54 32 43 CALM 30.44F  
WENATCHEE SUNNY 51 31 46 CALM 30.44F  
WINTHROP FAIR 54 28 37 SE7 30.43F  
OMAK SUNNY 51 31 46 CALM 30.46F  
SUNNYSIDE CLEAR 55 33 42 CALM 30.46S  
   
..SOUTHERN BRITISH COLUMBIA
 
 
 
CITY SKY/WX TMP DP RH WIND PRES REMARKS
 
PENTICTON MOSUNNY 52 39 62 N7 30.45F  
CASTLEGAR SUNNY 46 32 57 S3 30.45F  
CRANBROOK PTSUNNY 45 28 53 E3 30.42S  
OSOYOOS N/A 54 36 50 SW1 N/A  
CRESTON N/A 50 34 53 W2 N/A  
   
..WESTERN MONTANA
 
 
 
CITY SKY/WX TMP DP RH WIND PRES REMARKS
 
KALISPELL CLEAR 44 32 62 SE5 30.43F  
MISSOULA SUNNY 45 28 51 CALM 30.45F  
   
..NEIGHBORING CITIES
 
 
 
CITY SKY/WX TMP DP RH WIND PRES REMARKS
 
SEATTLE MOSUNNY 60 39 45 N8 30.36S  
PORTLAND MOSUNNY 62 31 31 W5 30.31F  
BOISE SUNNY 51 21 30 NW9 30.45F  
GREAT FALLS MOSUNNY 54 25 32 SW23 30.27F  
CALGARY PTSUNNY 61 30 31 W10 30.15F  
 
CLICK HERE TO GO TO PREVIOUS BULLETINS.

The Nexlab WA Page
The Nexlab ID Page Main Text Page